[[{"header":{"parameterUnit":"m.s-1","parameterCategory":1,"la1":30.2991,"la2":30.254,"lo1":-89.0895,"lo2":-89.0444,"dy":0.0017,"dx":0.0017,"nx":28,"ny":28,"refTime":"2025-03-09T21:00:00:Z","depth":0,"parameterNumber":2,"parameterNumberName":"U-component_of_WINDS"},"data":[0,0,0,0,0,0,0,0,0,0,0,0,0,0,0,0,0,0,0,0,0,0,0,0,0,0,0,0,0,0,0,0,0,0,0,0,0,0,0,0,0,0,0,0,0,0,0,0,0,0,0,0,0,0,0,0,0,0,4.5596,4.5596,0,4.5673,4.5674,4.5675,4.5627,4.5625,4.5623,4.562,4.5701,4.5705,4.5709,0,0,0,0,0,0,0,0,0,0,0,0,0,4.5407,4.5411,4.5595,4.5596,4.5597,4.5673,4.5674,4.5675,4.5628,4.5625,4.5622,4.5619,4.5699,4.5704,4.5709,0,0,0,0,0,0,0,0,0,0,0,0,0,4.5488,4.5412,4.5595,4.5583,4.5582,4.5673,4.5674,4.5676,4.5628,4.5625,4.5621,4.5618,4.5698,4.5704,4.571,4.5818,0,0,4.5729,4.5732,0,0,0,0,0,0,0,0,4.5483,4.5495,4.5584,4.5584,4.5583,4.5637,4.5637,4.5723,4.5629,4.5611,4.562,4.5616,4.5682,4.569,4.5712,4.5821,4.5825,4.573,4.5734,4.5737,4.5738,0,0,0,0,0,0,0,4.5478,4.5491,4.5626,4.5585,4.5585,4.5574,4.5581,4.5653,4.5665,4.5612,4.5609,4.5619,4.5682,4.5706,4.5713,4.5826,4.573,4.5736,4.5739,4.5742,4.6032,4.6035,0,0,0,0,0,0,4.5473,4.5487,4.5624,4.5629,4.5524,4.558,4.5589,4.5623,4.5664,4.5667,4.5621,4.5616,4.5696,4.5706,4.5716,4.5847,4.5737,4.5743,4.5746,4.6028,4.6032,4.6037,0,0,0,0,0,0,4.5469,4.5486,4.5621,4.5557,4.5573,4.5587,4.5626,4.5627,4.5651,4.5671,4.5673,4.5644,4.5694,4.5707,4.5793,4.5849,4.5745,4.5751,4.6023,4.6029,4.6034,4.6108,0,0,0,0,0,0,4.5464,4.5484,4.5525,4.5558,4.5577,4.5696,4.563,4.5631,4.5662,4.5656,4.5692,4.5695,4.5692,4.5784,4.58,4.5856,4.5756,4.6018,4.6026,4.6033,4.6101,4.6116,4.6129,0,0,0,0,0,4.5457,4.5542,4.5527,4.5544,4.5627,4.57,4.571,4.5705,4.5666,4.5708,4.5721,4.5694,4.584,4.5793,4.5811,4.5869,4.6015,4.6024,4.6032,4.6095,4.6113,4.6128,0,0,0,0,0,0,4.5514,4.5546,4.553,4.5627,4.5661,4.5691,4.5743,4.5724,4.577,4.5762,4.5754,4.5763,4.5854,4.587,4.5817,4.5977,4.5922,4.5934,4.5963,4.5981,4.5994,4.5989,4.5762,0,0,0,0,0,4.5538,4.5593,4.5618,4.5702,4.572,4.5729,4.576,4.5754,4.5788,4.5802,4.5822,4.5857,4.5911,4.5947,4.5997,4.6103,4.6112,4.6152,4.6166,4.6177,4.6189,4.6249,4.6268,4.6065,4.6065,4.6065,0,0,4.5587,4.5612,4.5647,4.5714,4.574,4.5799,4.5741,4.5805,4.5849,4.5812,4.5895,4.5911,4.595,4.6048,4.6092,4.6064,4.6247,4.6189,4.6197,4.6202,4.626,4.6279,4.6296,4.6071,4.607,4.6069,0,0,4.5708,4.5732,4.5805,4.5833,4.5872,4.5878,4.5896,4.593,4.5939,4.6023,4.5998,4.605,4.6143,4.6172,4.6199,4.6336,4.6313,4.6352,4.6425,4.6483,4.6499,4.6514,4.6564,4.6582,4.6363,4.6363,4.6363,0,4.5765,4.5852,4.5845,4.5913,4.5944,4.5914,4.599,4.6016,4.6071,4.6094,4.6062,4.618,4.6204,4.6309,4.6343,4.6365,4.6387,4.6348,4.6498,4.6512,4.6525,4.6573,4.6592,4.6368,4.6367,4.6367,4.6367,0,4.5921,4.5982,4.6037,4.6092,4.6129,4.62,4.6205,4.6244,4.6235,4.6245,4.6332,4.636,4.6418,4.6442,4.6433,4.6547,4.6529,4.6498,4.6442,4.6549,4.6594,4.6612,4.6375,4.6373,4.6372,4.637,0,0,4.6078,4.613,4.6151,4.6176,4.6219,4.6267,4.6338,4.6394,4.6429,4.6468,4.6528,4.6609,4.6581,4.6612,4.6607,4.6658,4.6767,4.6621,4.6622,4.6649,4.6898,4.6922,4.6943,4.6753,4.6756,4.6759,4.6895,0,4.6203,4.6327,4.6324,4.6439,4.6497,4.6471,4.6533,4.6567,4.6579,4.663,4.6643,4.6701,4.6659,4.6678,4.6728,4.6743,4.6817,4.6733,4.681,4.6813,4.6802,4.6966,4.6991,4.7118,4.6912,4.6915,4.6918,0,4.6365,4.6411,4.6532,4.657,4.6594,4.6649,4.6703,4.6752,4.6791,4.6796,4.6832,4.682,4.6893,4.6835,4.6938,4.6881,4.6912,4.6925,4.693,4.6938,4.6872,4.698,4.7158,4.7178,4.6945,4.6943,4.6941,0,4.647,4.6562,4.6647,4.667,4.6715,4.6755,4.6776,4.6811,4.6847,4.6893,4.6917,4.6971,4.7001,4.7045,4.7048,4.7005,4.7152,4.7094,4.716,4.716,4.7192,4.719,4.738,4.7211,4.7211,4.721,4.721,0,4.6611,4.6686,4.6695,4.6748,4.6833,4.683,4.6914,4.6931,4.6964,4.702,4.7001,4.7054,4.7055,4.711,4.7113,4.7199,4.7212,4.722,4.722,4.7222,4.7222,4.7243,4.7235,4.7215,4.7214,4.7213,4.7212,0,4.6742,4.6751,4.6842,4.6879,4.689,4.6951,4.6982,4.7033,4.7044,4.7116,4.7132,4.7149,4.7214,4.7222,4.7296,4.7298,4.7403,4.7393,4.739,4.7388,4.7455,4.7449,4.7666,4.7695,4.7506,4.7508,4.7509,0,4.6831,4.6889,4.6932,4.6969,4.6992,4.7051,4.7087,4.7088,4.7127,4.7177,4.7223,4.7285,4.7335,4.7439,4.7459,4.7517,4.7509,4.7581,4.7518,4.7519,4.7513,4.751,4.7517,4.7594,4.7596,4.7597,4.7599,0,4.699,4.6992,4.7045,4.7101,4.7145,4.7189,4.723,4.7261,4.7267,4.7312,4.7378,4.7417,4.7495,4.7558,4.7615,4.7638,4.7621,4.7619,4.7638,4.7641,4.7638,4.7642,4.7425,4.7614,4.7612,4.7611,4.761,4.761,4.7104,4.7155,4.7195,4.7255,4.7286,4.7326,4.7377,4.7395,4.7449,4.7513,4.751,4.7583,4.7623,4.7699,4.7726,4.7784,4.7761,4.7787,4.7794,4.7801,4.7809,4.7628,4.7795,4.7794,4.7794,4.7794,4.7793,0,4.7263,4.7288,4.7343,4.7403,4.7451,4.743,4.7476,4.7518,4.7583,4.7622,4.7672,4.7749,4.7811,4.7837,4.7898,4.794,4.7934,4.7956,4.7954,4.796,4.7825,4.7804,4.7961,4.796,4.796,4.796,4.796,4.796,4.7352,4.7438,4.7446,4.7549,4.7573,4.7645,4.7673,4.771,4.7741,4.7829,4.788,4.7897,4.7931,4.7995,4.8052,4.8058,4.8082,4.8109,4.8112,4.7986,4.7969,4.7953,4.7933,4.8114,4.8114,4.8241,4.8242,4.8243]},{"header":{"parameterUnit":"m.s-1","parameterCategory":1,"la1":30.2991,"la2":30.254,"lo1":-89.0895,"lo2":-89.0444,"dy":0.0017,"dx":0.0017,"nx":28,"ny":28,"refTime":"2025-03-09T21:00:00:Z","depth":0,"parameterNumber":3,"parameterNumberName":"V-component_of_WINDS"},"data":[0,0,0,0,0,0,0,0,0,0,0,0,0,0,0,0,0,0,0,0,0,0,0,0,0,0,0,0,0,0,0,0,0,0,0,0,0,0,0,0,0,0,0,0,0,0,0,0,0,0,0,0,0,0,0,0,0,0,-6.1233,-6.1235,0,-6.135,-6.1351,-6.1353,-6.1349,-6.1348,-6.1346,-6.1345,-6.1459,-6.1464,-6.1468,0,0,0,0,0,0,0,0,0,0,0,0,0,-6.1004,-6.1008,-6.1233,-6.1235,-6.1236,-6.135,-6.1352,-6.1353,-6.135,-6.1348,-6.1346,-6.1344,-6.1458,-6.1463,-6.1469,0,0,0,0,0,0,0,0,0,0,0,0,0,-6.111,-6.101,-6.1233,-6.1248,-6.1251,-6.135,-6.1352,-6.1354,-6.135,-6.1348,-6.1345,-6.1343,-6.1456,-6.1463,-6.1469,-6.1559,0,0,-6.149,-6.1493,0,0,0,0,0,0,0,0,-6.1104,-6.1119,-6.1245,-6.1247,-6.125,-6.1333,-6.1313,-6.1422,-6.1351,-6.1312,-6.1345,-6.1342,-6.1419,-6.1429,-6.1456,-6.1564,-6.1569,-6.1491,-6.1495,-6.1498,-6.15,0,0,0,0,0,0,0,-6.1097,-6.1114,-6.1279,-6.1246,-6.125,-6.1248,-6.1261,-6.1334,-6.1377,-6.1315,-6.1316,-6.133,-6.142,-6.1449,-6.1458,-6.1571,-6.1491,-6.1497,-6.1501,-6.1503,-6.1761,-6.1764,0,0,0,0,0,0,-6.1087,-6.1108,-6.1276,-6.1283,-6.117,-6.1254,-6.1268,-6.1309,-6.1377,-6.1385,-6.1332,-6.1329,-6.1439,-6.145,-6.1462,-6.1573,-6.1498,-6.1504,-6.1508,-6.1759,-6.1762,-6.1765,0,0,0,0,0,0,-6.1082,-6.1102,-6.1271,-6.1196,-6.1217,-6.1261,-6.1306,-6.1312,-6.1341,-6.1389,-6.1396,-6.1353,-6.1437,-6.1453,-6.1536,-6.1577,-6.1507,-6.1513,-6.1755,-6.176,-6.1763,-6.1795,0,0,0,0,0,0,-6.1076,-6.11,-6.1135,-6.1196,-6.1221,-6.1344,-6.1309,-6.1316,-6.1354,-6.1352,-6.1411,-6.1419,-6.1436,-6.1526,-6.1543,-6.1585,-6.1519,-6.1752,-6.1757,-6.1762,-6.179,-6.1799,-6.1807,0,0,0,0,0,-6.1067,-6.1138,-6.1137,-6.1157,-6.1266,-6.1346,-6.136,-6.138,-6.1357,-6.1392,-6.1423,-6.1417,-6.157,-6.1534,-6.1553,-6.1598,-6.1749,-6.1756,-6.1762,-6.1786,-6.1797,-6.1807,0,0,0,0,0,0,-6.1078,-6.1146,-6.1146,-6.1238,-6.1287,-6.1345,-6.139,-6.1391,-6.1445,-6.1441,-6.1462,-6.1476,-6.156,-6.1587,-6.1546,-6.169,-6.1657,-6.1667,-6.1669,-6.168,-6.1688,-6.1679,-6.1524,0,0,0,0,0,-6.1091,-6.1152,-6.1208,-6.1284,-6.1308,-6.1345,-6.1381,-6.1393,-6.1443,-6.1463,-6.1499,-6.1547,-6.1606,-6.1644,-6.1701,-6.1794,-6.1808,-6.1835,-6.1843,-6.185,-6.1859,-6.1912,-6.1925,-6.1786,-6.1785,-6.1785,0,0,-6.1119,-6.1164,-6.12,-6.1287,-6.1326,-6.1388,-6.1362,-6.1428,-6.1474,-6.1472,-6.1554,-6.1583,-6.1637,-6.1727,-6.1768,-6.1752,-6.19,-6.1858,-6.1863,-6.1868,-6.1919,-6.1932,-6.1944,-6.179,-6.1789,-6.1788,0,0,-6.1201,-6.1241,-6.131,-6.135,-6.141,-6.1435,-6.1452,-6.1511,-6.1531,-6.1614,-6.1614,-6.1669,-6.1769,-6.1809,-6.1842,-6.1943,-6.194,-6.1961,-6.2005,-6.2057,-6.2068,-6.2077,-6.2114,-6.2127,-6.1969,-6.1969,-6.1969,0,-6.1227,-6.1321,-6.1344,-6.1412,-6.145,-6.1455,-6.1524,-6.1562,-6.1636,-6.1663,-6.1645,-6.1774,-6.181,-6.191,-6.1935,-6.1961,-6.1981,-6.1954,-6.2064,-6.2074,-6.2084,-6.2119,-6.2133,-6.1972,-6.1971,-6.1971,-6.1971,0,-6.1351,-6.1417,-6.1465,-6.154,-6.1584,-6.1652,-6.1685,-6.1727,-6.1736,-6.1762,-6.1847,-6.1892,-6.1959,-6.1984,-6.1991,-6.2085,-6.2074,-6.206,-6.2027,-6.2099,-6.2133,-6.2146,-6.1975,-6.1974,-6.1973,-6.1973,0,0,-6.1441,-6.1531,-6.1548,-6.1583,-6.1651,-6.1702,-6.177,-6.1838,-6.1874,-6.1926,-6.1984,-6.2071,-6.206,-6.2098,-6.2111,-6.2156,-6.2234,-6.2137,-6.2138,-6.2154,-6.2341,-6.2351,-6.2366,-6.2233,-6.2235,-6.2237,-6.2337,0,-6.1531,-6.1655,-6.1679,-6.1786,-6.1847,-6.1853,-6.1913,-6.1961,-6.1988,-6.2044,-6.2073,-6.2135,-6.2115,-6.2138,-6.2183,-6.2215,-6.2272,-6.2208,-6.2286,-6.2289,-6.2273,-6.2383,-6.2394,-6.2485,-6.235,-6.2352,-6.2353,0,-6.1651,-6.171,-6.1824,-6.1886,-6.1913,-6.1966,-6.2032,-6.2085,-6.214,-6.2156,-6.22,-6.2209,-6.228,-6.2245,-6.2344,-6.23,-6.2333,-6.2354,-6.2358,-6.2366,-6.2325,-6.2394,-6.2514,-6.2528,-6.2374,-6.2372,-6.2371,0,-6.1707,-6.1813,-6.1896,-6.1926,-6.2,-6.2038,-6.2071,-6.2123,-6.2163,-6.222,-6.2246,-6.231,-6.2344,-6.2393,-6.2418,-6.239,-6.2516,-6.2482,-6.2531,-6.2531,-6.2557,-6.2555,-6.2684,-6.2578,-6.2578,-6.2578,-6.2578,0,-6.1804,-6.1874,-6.1922,-6.1973,-6.2052,-6.2079,-6.2155,-6.2187,-6.2235,-6.2291,-6.23,-6.2353,-6.2383,-6.244,-6.246,-6.254,-6.2555,-6.257,-6.2574,-6.2569,-6.2568,-6.2591,-6.2586,-6.2582,-6.2581,-6.258,-6.2579,0,-6.1879,-6.1914,-6.2005,-6.2069,-6.2087,-6.2142,-6.2197,-6.2246,-6.2274,-6.2346,-6.2365,-6.2408,-6.2476,-6.2507,-6.259,-6.2604,-6.2694,-6.2694,-6.2676,-6.2678,-6.2726,-6.2721,-6.2875,-6.2897,-6.2776,-6.2777,-6.2778,0,-6.1939,-6.1993,-6.2064,-6.2104,-6.2139,-6.2202,-6.2244,-6.2273,-6.2316,-6.2384,-6.2426,-6.2495,-6.2551,-6.266,-6.2698,-6.2762,-6.2764,-6.2813,-6.2773,-6.2767,-6.2765,-6.2762,-6.2768,-6.282,-6.2821,-6.2822,-6.2823,0,-6.2042,-6.2058,-6.2118,-6.2187,-6.2237,-6.2291,-6.2344,-6.2376,-6.2413,-6.2461,-6.2532,-6.2577,-6.2664,-6.2732,-6.2799,-6.2831,-6.2834,-6.2836,-6.2851,-6.2846,-6.2834,-6.2842,-6.2697,-6.2832,-6.2831,-6.283,-6.283,-6.2829,-6.2111,-6.2161,-6.222,-6.2288,-6.2332,-6.2382,-6.2432,-6.2468,-6.2529,-6.2603,-6.2616,-6.2692,-6.2747,-6.2838,-6.2873,-6.2933,-6.292,-6.2942,-6.2947,-6.2952,-6.2955,-6.2825,-6.2945,-6.2944,-6.2944,-6.2944,-6.2944,0,-6.2216,-6.2255,-6.2317,-6.2393,-6.2447,-6.2447,-6.2507,-6.2551,-6.2619,-6.2671,-6.2728,-6.281,-6.2877,-6.2922,-6.299,-6.3029,-6.3032,-6.3046,-6.3043,-6.3051,-6.2962,-6.2943,-6.3042,-6.3042,-6.3042,-6.3042,-6.3042,-6.3042,-6.2276,-6.2361,-6.2384,-6.249,-6.2528,-6.2604,-6.2638,-6.2685,-6.2727,-6.2819,-6.2876,-6.2906,-6.2955,-6.3028,-6.3089,-6.3101,-6.3125,-6.314,-6.3151,-6.3067,-6.3056,-6.3047,-6.3029,-6.3145,-6.3145,-6.3235,-6.3235,-6.3236]}]]